星链-5527 (STARLINK-5527 )

导读

STARLINK-5527是美国SpaceX公司星链星座的一员,于2023年5月10日由猎鹰9号火箭发射升空。它属于星链第二代低轨互联网卫星,运行在近地轨道,为全球提供高速宽带互联网接入服务。星链星座不断扩张,服务覆盖住宅、航空、应急通信等多个领域,STARLINK-5527的入轨进一步强化了星链的全球网络覆盖能力。

基本信息
目录编号:
56497
目录名称:
STARLINK-5527
国际标识:
2023-064BB
轨道中心:
EARTH
卫星名称:
星链-5527
卫星全名:
星链-5527 (STARLINK-5527 )
卫星状态:
在轨 (已飞行1221 天)
发射日期:
2023-05-10 UTC
国别 :
美国 (US)
星等 :
--
该卫星已列入 空间交会检测服务 Space Conjunction Data Service (SCDS) ,当前飞行风险评估等级: 无高风险
轨道信息
数据来源 国际轨道数据
星历时间: 2026-09-12T14:29:37+0800
9小时前
查看轨道信息
半长轴: 6950.192km
偏心率: 0.0003324
轨道倾角: 70.001°
近地点辐角 268.220°
升交点赤经 353.897°
平近点角 91.858°
近地点: 569.744km
远地点: 574.366km
周期: 96.107分钟
每日圈数: 14.983305
详细信息
固有亮度:
5
最大亮度:
2.5
卫星平台:
Starlink v1.5
覆盖范围:
全球
运营商:
太空探索技术公司
运营商所在国:
美国
制造商(研发单位):
太空探索技术公司
制造商所在国:
美国
使用方式:
暂无
卫星简介
星链(Starlink)计划是由太空探索技术公司(SpaceX)提出的一个巨型低轨卫星互联网星座项目,计划在2019年至2024年间在太空搭建由约1.2万颗卫星组成的“星链”网络,其中1584颗将部署在地球上空550千米处的近地轨道,并从2020年开始工作。该卫星仍在工作。
2D轨道图
3D轨道图
轨道高度分析图
轨道倾角分析图
轨道综合分析图
查看轨道综合分析图
交会数据列表
事件ID 空间交会对象 最接近时刻(TCA) 交会距离 交会风险概率(CRP) 交会风险指数(CRI) 操作
CDM_260912-221305-649706-339523
2026-09-12T
22:13:33+0000
2.791 km
极远距离
1.467942E-6 低风险 0.38
与全量物体交会距离演化趋势
与全量物体交会风险概率演化趋势